Location: *
(60.1759°S, 155.0663°W)
Time: 00:21:03
(UTC+00:00)

Cosmos 1486 Rocket - Pass Details

Date: 17 September 2019
Orbit: 758 x 784 km, 74.1° (Epoch: 16 October)

Event Time Altitude Azimuth Distance (km) Brightness Sun altitude
Exits shadow 13:10:55 46° 265° (W) 1,063 4.4 -23.0°
Maximum altitude 13:11:56 53° 228° (SW) 978 4.4 -22.9°
Drops below altitude 10° 13:17:15 10° 150° (SSE) 2,379 7.5 -22.4°
Sets 13:19:43 0° 145° (SE) 3,309 8.6 -22.2°
